Other Public Products
Issued by NWS Grand Forks, ND

Home | Current Version | Previous Version | Graphics & Text | Print | Product List | Glossary On
Versions: 1 2 3 4 5 6 7 8 9 10 11 12 13 14 15 16 17 18 19 20 21 22 23 24 25 26 27 28 29 30 31 32 33 34 35 36 37 38 39 40 41 42 43 44 45 46 47 48 49 50
000
FPUS83 KFGF 191510
OPUFGF
PRAIRIE TO PINES WEATHER ROUNDUP
NATIONAL WEATHER SERVICE EASTERN NORTH DAKOTA/GRAND FORKS ND
1000 AM CDT TUE SEP 19 2017

 **SATELLITE DATA USED TO AUGMENT SKY COVER AT AUTOMATED STATIONS**
 *****  WEATHER ACROSS EASTERN NORTH DAKOTA  *****

CITY           SKY/WX    TMP DP  RH WIND       PRES   REMARKS
GRAND FORKS    CLOUDY    61  61 100 SE20G25   29.71F FOG
GRAND FORKS AF CLOUDY    61  61 100 SE16      29.71R FOG
GRAND CITY NWS NOT AVBL
BUXTON         NOT AVBL
DEVILS LAKE    CLOUDY    60  60 100 SE20G29   29.64F FOG
FARGO          CLOUDY    64  63  96 SE13      29.72F
WAHPETON ARPT  CLOUDY    63  61  94 SE14G22   29.74F
$$

 *****  WEATHER ACROSS CENTRAL AND WESTERN NORTH DAKOTA  *****

CITY           SKY/WX    TMP DP  RH WIND       PRES   REMARKS
JAMESTOWN      NOT AVBL
BISMARCK       PTSUNNY   65  45  48 S12G28    29.51S
MINOT          CLOUDY    61  59  93 E22G30    29.45F
MINOT AFB      CLOUDY    60  58  94 SE24G33   29.45F
GARRISON         N/A     62  60  93 SE16G24   29.46F
WILLISTON      CLOUDY    59  51  75 W3        29.40F
DICKINSON      FAIR      61  49  64 SW8       29.46R
HETTINGER      PTSUNNY   62  45  53 CALM      29.53R
$$

 *****  OTHER OBSERVATIONS NORTHEAST NORTH DAKOTA  *****

CITY           SKY/WX    TMP DP  RH WIND       PRES   REMARKS
WALHALLA       FOG      N/A N/A N/A SE18      29.69F VSB 1
LANGDON        CLOUDY    59  59 100 E18G28    29.68F FOG
CAVALIER       FOG       57  57 100 SE8G15    29.71F VSB 1/2
GRAFTON        CLOUDY    59  59 100 SE18G24   29.73F FOG
CANDO          CLOUDY    59  59 100 SE21G30   29.63F FOG
FORT TOTTEN      N/A     61  61 100 SE12      29.95S
ROLLA          FOG       57  57 100 SE24      29.60F VSB<1/4
RUGBY          CLOUDY    61  61 100 SE25G38   29.52F FOG
 ***** THE ABOVE OBSERVATIONS ARE NON NWS ARE NOT QUALITY
        CONTROLLED AND MAY MIS-REPORT RAIN FOR SNOW...
$$

 *****  OTHER OBSERVATIONS SOUTHEAST NORTH DAKOTA *****

CITY           SKY/WX    TMP DP  RH WIND       PRES   REMARKS
COOPERSTOWN    FOG       61  61 100 SE17G23   29.68F VSB 3/4
VALLEY CITY    FOG       63  63 100 SE17      29.68F VSB 1
OAKES          NOT AVBL
GWINNER        CLOUDY    66  64  94 SE14      29.69F
SHEYENNE NWR     N/A     65  65 100 SE12      29.95S
BUFFALO        NOT AVBL
WYNDMERE       NOT AVBL
 ***** THE ABOVE OBSERVATIONS ARE NON NWS ARE NOT QUALITY
       CONTROLLED AND MAY MIS-REPORT RAIN FOR SNOW...
$$

  *****  WEATHER ACROSS NORTHERN MINNESOTA  *****

CITY           SKY/WX    TMP DP  RH WIND       PRES   REMARKS
FLAG ISLAND    CLOUDY    55  54  94 SE12      29.84F
WARROAD        CLOUDY    55  52  88 SE10      29.84S FOG
ROSEAU         CLOUDY    57  52  82 E12       29.81F HAZE
HALLOCK        CLOUDY    59  57  94 SE13      29.75R FOG
THF RVR FALLS  CLOUDY    60  57  89 SE15      29.78F
HALSTAD        NOT AVBL
FOSSTON        PTSUNNY   59  57  94 SE13G18   29.80F
BAUDETTE       CLOUDY    55  55 100 SE13      29.85F
WASKISH        CLOUDY    57  55  94 E7        29.85F
CROOKSTON      CLOUDY    61  59  94 SE18      29.75F
$$
  *****  WEATHER ACROSS CENTRAL AND WEST MINNESOTA  *****

CITY           SKY/WX    TMP DP  RH WIND       PRES   REMARKS
BEMIDJI        CLOUDY    58  57  94 SE14      29.84F
PARK RAPIDS    CLOUDY    60  57  89 SE13      29.84F
WADENA         CLOUDY    57  57 100 SE13      29.83F FOG
DETROIT LAKES  CLOUDY    59  59 100 SE14G23   29.80F FOG
MOORHEAD       CLOUDY    64  61  88 SE14G23   29.74F
FERGUS FALLS   CLOUDY    64  64 100 SE15G21   29.77F
ELBOW LAKE     CLOUDY    64  62  96 E14G23    29.79S
MORRIS MN      CLOUDY    64  64 100 SE16      29.77F FOG
STAPLES        CLOUDY    57  57 100 SE7       29.85F FOG
WHEATON        CLOUDY    66  63  88 SE16G23   29.76F FOG
$$
  *****  WEATHER ELSEWHERE ACROSS MINNESOTA  *****

CITY           SKY/WX    TMP DP  RH WIND       PRES   REMARKS
DULUTH         CLOUDY    58  58 100 SE7       29.96R
INTRNTL FALLS  CLOUDY    57  54  89 SE9       29.90F FOG
ELY            CLOUDY    57  55  94 SE7       29.96S
CLOQUET        CLOUDY    59  55  88 E3        29.95F
BRAINERD       CLOUDY    59  58  96 SE9       29.88F FOG
HIBBING        CLOUDY    56  56 100 SE8       29.94S
ALEXANDRIA     CLOUDY    62  61  96 SE10      29.83F FOG
SAINT CLOUD    CLOUDY    61  61 100 SE7       29.88S FOG
MINNEAPOLIS    FAIR      66  61  84 SE12      29.90F
$$

  *****  WEATHER ACROSS SOUTH DAKOTA  *****

CITY           SKY/WX    TMP DP  RH WIND       PRES   REMARKS
SIOUX FALLS    DRIZZLE   68  67  96 S16G24    29.77S FOG
BROOKINGS      CLOUDY    66  64  94 SE20      29.76F
WATERTOWN      CLOUDY    66  65  96 SE21G30   29.73F
HURON          CLOUDY    68  64  87 SE20G26   29.66F
SISSETON         N/A     67  65  93 SE16G25   29.71F
ABERDEEN       CLOUDY    70  64  81 SE24G32   29.64F
MITCHELL       CLOUDY    69  65  86 SE14G24   29.69F
PIERRE         FAIR      67  61  81 SE18      29.52F
MOBRIDGE       FAIR      69  62  78 SE23G30   29.50F
RAPID CITY     SUNNY     63  48  59 NE6       29.55R
$$

  *****  SOME WEATHER IN NEARBY STATES *****

CITY           SKY/WX    TMP DP  RH WIND       PRES   REMARKS
GLASGOW MT     PTSUNNY   50  45  83 W10       29.52R
GREAT FALLS MT FAIR      44  33  65 SW13      29.64S
CHEYENNE WY    FAIR      63  26  24 SW12      29.76S
SCOTTSBLUFF NE FAIR      55  52  89 SE6       29.64F
OMAHA NE       CLOUDY    71  66  84 SE14      29.82F
DES MOINES IA  CLOUDY    65  65 100 SE8       29.90R FOG
DAVENPORT IA   FAIR      69  63  81 E5        29.98S
CHICAGO IL     CLOUDY    69  65  86 N5        29.97R FOG
EAU CLAIRE WI  FAIR      63  56  78 SE7       29.97S
LA CROSSE WI   FAIR      66  58  75 E7        29.97R
$$

  *****  SOME NATIONAL WEATHER *****

CITY           SKY/WX    TMP DP  RH WIND       PRES   REMARKS
LA GUARDIA NY  PTSUNNY   74  66  76 NE22G29   29.99F
RALEIGH NC     FAIR      75  65  70 N8        30.02S
ATLANTA GA     FAIR      80  63  55 VRB3      30.06R
NEW ORLEANS LA PTSUNNY   84  76  76 SW3       30.02S HX  93
OKLAHOMA CITY  FAIR      80  71  74 S18G25    29.87S
ALBUQUERQUE NM FAIR      65  27  23 SE3       30.09S
SALT LAKE CITY LGT RAIN  50  44  80 NW13      29.91R
LOS ANGELES CA CLOUDY    69  61  75 CALM      29.93R
BOISE ID       CLOUDY    49  42  77 SE5       29.88R
SEATTLE WA     PTSUNNY   50  48  93 S8        29.72R
$$

*** WEATHER ACROSS MANITOBA...SASKATCHEWAN AND ONTARIO ***
                ***ONTARIO***

CITY           SKY/WX    TMP DP  RH WIND       PRES   REMARKS
GERALDTON      PTSUNNY   55  52  88 S5        30.08R
THUNDER BAY    PTSUNNY   61  55  82 E8        30.03S
SIOUX LOOKOUT  CLOUDY    55  52  88 SE6       29.95F
TORONTO        PTSUNNY   75  66  73 NE3       30.04S
BIG TROUT LK   SUNNY     46  41  81 S5        30.05S
PICKLE LAKE    PTSUNNY   46  43  87 SE7       30.01S
DRYDEN         CLOUDY    55  54  94 SE9       29.93S
KENORA         CLOUDY    55  52  88 SE10      29.88S
$$
                *** MANITOBA***

CITY           SKY/WX    TMP DP  RH WIND       PRES   REMARKS
BRANDON        LGT RAIN  55  54  94 E20G26    29.60F
DAUPHIN        FOG       52  52 100 E14G21    29.66S VSB 1/4
ISLAND LAKE    NOT AVBL
PILOT MOUND      N/A     57  55  94 E18         N/A
THE PAS        PTSUNNY   55  46  71 E16G23    29.75F
THOMPSON       MOSUNNY   46  41  81 E3        29.95R
WINNIPEG       CLOUDY    59  55  88 SE15G24   29.74F
LYNN LAKE      SUNNY     46  41  81 E7        29.90R
CHURCHILL      PTSUNNY   43  39  87 SW3       30.00R
GILLAM         MOSUNNY   45  41  87 SW5       29.98S
$$
                ***SASKATCHEWAN***

CITY           SKY/WX    TMP DP  RH WIND       PRES   REMARKS
ESTEVAN        LGT RAIN  54  52  94 E17G24    29.44S
KINDERSLEY     PTSUNNY   45  43  93 W14G21    29.47F
LLOYDMINSTER   LGT RAIN  45  45 100 SW8       29.42F FOG
PRINCE ALBERT  CLOUDY    52  50  93 E12       29.54F
REGINA         LGT RAIN  52  50  93 E10       29.45F FOG
YORKTON        MOSUNNY   55  50  82 E17G26    29.54F



USA.gov is the U.S. government's official web portal to all federal, state and local government web resources and services.